CW4114 Weather Reports


time (UTC)temp
F
wind
direction
speed
knots
gust
knots
rain 1hr
in
rain 24hr
in
rain mn
in
humidity
%
barometer
mb
20260509024244 46 199 3.5 7.8 0.00 0.00 0.00 66 1003.7
20260509023744 46 171 1.7 5.2 0.00 0.00 0.00 67 1003.8
20260509023241 46 192 2.6 6.1 0.00 0.00 0.00 68 1003.8
20260509022740 45 192 4.3 6.1 0.00 0.00 0.00 68 1003.9
20260509021739 45 166 3.5 5.2 0.00 0.00 0.00 70 1003.9
20260509021239 45 200 1.7 4.3 0.00 0.00 0.00 69 1003.9
20260509021008 45 182 1.7 4.3 0.00 0.00 0.00 69 1003.9
20260509020241 45 186 1.7 3.5 0.00 0.00 0.00 69 1003.9
20260509015725 45 179 1.7 3.5 0.00 0.00 0.00 68 1003.9
20260509015224 45 162 1.7 3.5 0.00 0.00 0.00 67 1003.9
20260509014719 45 151 1.7 3.5 0.00 0.00 0.00 67 1003.8
20260509014219 45 166 1.7 4.3 0.00 0.00 0.00 67 1003.9
20260509013718 45 155 2.6 4.3 0.00 0.00 0.00 67 1003.9
20260509013215 45 168 2.6 3.5 0.00 0.00 0.00 67 1003.9
20260509012714 45 161 1.7 3.5 0.00 0.00 0.00 66 1003.9
20260509012440 45 155 1.7 3.5 0.00 0.00 0.00 66 1003.8
20260509011711 45 188 0.9 3.5 0.00 0.00 0.00 66 1003.8
20260509011212 46 157 1.7 3.5 0.00 0.00 0.00 66 1003.8
20260509010710 46 158 1.7 2.6 0.00 0.00 0.00 65 1003.7
20260509010214 46 151 1.7 4.3 0.00 0.00 0.00 65 1003.7
20260509005757 46 144 1.7 3.5 0.00 0.00 0.00 64 1003.7
20260509005031 47 137 0.9 3.5 0.00 0.00 0.00 64 1003.5
20260509004532 47 144 1.7 4.3 0.00 0.00 0.00 64 1003.7
20260509004031 47 134 0.9 4.3 0.00 0.00 0.00 65 1003.7
20260509003530 47 141 1.7 3.5 0.00 0.00 0.00 66 1003.5
20260509003027 47 141 0.9 4.3 0.00 0.00 0.00 68 1003.5
20260509002526 47 121 0.9 4.3 0.00 0.00 0.00 71 1003.5
20260509002027 46 127 1.7 3.5 0.00 0.00 0.00 75 1003.5
20260509001527 45 131 1.7 4.3 0.00 0.00 0.00 81 1003.5
20260509001026 44 137 2.6 4.3 0.00 0.00 0.00 86 1003.5
20260509000526 44 154 1.7 3.5 0.00 0.00 0.00 87 1003.7
20260509000020 44 96 0.0 2.6 0.00 0.00 0.00 87 1003.7
20260508235736 44 85 1.7 2.6 0.00 0.00 0.00 87 1003.7
20260508235008 43 85 0.9 2.6 0.00 0.00 0.00 87 1003.7
20260508234231 43 99 1.7 2.6 0.00 0.00 0.00 86 1003.9
20260508233503 43 75 0.9 2.6 0.00 0.00 0.00 86 1004.0
20260508233004 43 86 0.9 3.5 0.00 0.00 0.00 85 1003.9
20260508232503 43 87 1.7 3.5 0.00 0.00 0.00 85 1004.0
20260508232004 43 72 1.7 3.5 0.00 0.00 0.00 85 1004.0
20260508231504 44 80 1.7 5.2 0.00 0.00 0.00 84 1004.0
20260508231002 44 102 1.7 5.2 0.00 0.00 0.00 84 1004.0
20260508230504 44 110 2.6 6.1 0.00 0.00 0.00 83 1004.0
20260508230004 44 95 3.5 6.1 0.00 0.00 0.00 82 1004.0
20260508225503 44 86 3.5 5.2 0.00 0.00 0.00 83 1004.1
20260508225004 45 62 3.5 5.2 0.00 0.00 0.00 82 1004.1
20260508224503 45 75 3.5 5.2 0.00 0.00 0.00 81 1004.2
20260508224006 45 104 3.5 6.1 0.00 0.00 0.00 81 1004.2
20260508223503 45 76 4.3 6.1 0.00 0.00 0.00 81 1004.2
20260508222958 45 89 1.7 7.8 0.00 0.00 0.00 81 1004.2
20260508222724 45 86 3.5 8.7 0.00 0.00 0.00 80 1004.2
20260508221958 45 126 3.5 8.7 0.00 0.00 0.00 79 1004.2
20260508221454 45 78 4.3 8.7 0.00 0.00 0.00 78 1004.2
20260508220954 46 110 2.6 6.1 0.00 0.00 0.00 78 1004.4
20260508220454 46 82 3.5 6.1 0.00 0.00 0.00 77 1004.3
20260508215955 47 79 5.2 6.1 0.00 0.00 0.00 77 1004.3
20260508215454 47 83 3.5 7.8 0.00 0.00 0.00 76 1004.4
20260508214954 47 92 5.2 7.8 0.00 0.00 0.00 78 1004.4
20260508214451 47 86 5.2 7.8 0.00 0.00 0.00 77 1004.4
20260508213951 47 75 4.3 9.6 0.00 0.00 0.00 78 1004.5
20260508213718 46 66 3.5 11.3 0.00 0.00 0.00 77 1004.4
20260508213220 46 103 5.2 11.3 0.00 0.00 0.00 76 1004.4
20260508212450 46 93 6.1 9.6 0.00 0.00 0.00 75 1004.4
20260508211950 46 96 3.5 8.7 0.00 0.00 0.00 75 1004.5
20260508211453 47 110 5.2 8.7 0.00 0.00 0.00 75 1004.5
20260508210950 47 54 4.3 7.8 0.00 0.00 0.00 75 1004.5
20260508210717 47 71 4.3 7.8 0.00 0.00 0.00 76 1004.6
20260508205950 46 75 3.5 7.8 0.00 0.00 0.00 75 1004.6
20260508205449 46 80 4.3 8.7 0.00 0.00 0.00 75 1004.6
20260508204950 46 75 4.3 9.6 0.00 0.00 0.00 74 1004.7
20260508204450 47 59 5.2 9.6 0.00 0.00 0.00 73 1004.8
20260508203950 47 72 2.6 7.8 0.00 0.00 0.00 75 1004.7
20260508202948 47 76 5.2 9.6 0.00 0.00 0.00 72 1004.6
20260508202448 48 92 4.3 9.6 0.00 0.00 0.00 72 1004.6
20260508201949 48 79 5.2 9.6 0.00 0.00 0.00 73 1004.5
20260508201451 48 71 5.2 9.6 0.00 0.00 0.00 73 1004.5
20260508200949 48 45 5.2 9.6 0.00 0.00 0.00 76 1004.7
20260508200450 48 61 4.3 9.6 0.00 0.00 0.00 73 1004.6
20260508195950 48 93 5.2 10.4 0.00 0.00 0.00 72 1004.7
20260508195448 48 93 3.5 11.3 0.00 0.00 0.00 71 1004.9
20260508194948 48 102 7.8 11.3 0.00 0.00 0.00 70 1004.7
20260508194447 48 103 6.1 12.2 0.00 0.00 0.00 71 1004.8
20260508193948 48 75 7.0 12.2 0.00 0.00 0.00 71 1005.0
20260508193447 48 100 7.0 10.4 0.00 0.00 0.00 70 1004.9
20260508192947 47 87 5.2 11.3 0.00 0.00 0.00 72 1005.1
20260508192447 47 117 3.5 11.3 0.00 0.00 0.00 71 1005.0
20260508191946 48 92 6.1 9.6 0.00 0.00 0.00 72 1005.1
20260508191446 47 102 4.3 9.6 0.00 0.00 0.00 73 1005.2
20260508190947 47 65 5.2 9.6 0.00 0.00 0.00 74 1005.3
20260508190447 47 55 4.3 10.4 0.00 0.00 0.00 74 1005.3
20260508185947 47 145 5.2 10.4 0.00 0.00 0.00 73 1005.3
20260508185447 47 103 5.2 9.6 0.00 0.00 0.00 73 1005.3
20260508184946 47 92 3.5 9.6 0.00 0.00 0.00 73 1005.5
20260508184445 47 92 5.2 9.6 0.00 0.00 0.00 74 1005.4
20260508183946 47 75 4.3 9.6 0.00 0.00 0.00 74 1005.5
20260508183458 47 78 5.2 9.6 0.00 0.00 0.00 73 1005.6
20260508182945 47 87 6.1 9.6 0.00 0.00 0.00 75 1005.7
20260508182445 47 89 5.2 10.4 0.00 0.00 0.00 76 1005.7
20260508181945 47 114 5.2 10.4 0.00 0.00 0.00 75 1005.7
20260508181444 46 69 5.2 10.4 0.00 0.00 0.00 75 1005.8
20260508180944 46 75 6.1 10.4 0.00 0.00 0.00 75 1005.8
20260508180447 46 86 5.2 10.4 0.00 0.00 0.00 74 1005.9
20260508175944 46 116 5.2 11.3 0.00 0.00 0.00 74 1005.9
20260508175444 46 107 5.2 12.2 0.00 0.00 0.00 74 1006.1
20260508174945 46 107 7.0 12.2 0.00 0.00 0.00 74 1006.1
20260508174444 46 92 4.3 9.6 0.00 0.00 0.00 75 1006.2
20260508173945 45 89 4.3 10.4 0.00 0.00 0.00 76 1006.3
20260508173443 45 85 5.2 10.4 0.00 0.00 0.00 73 1006.4
20260508172943 46 87 7.0 11.3 0.00 0.00 0.00 72 1006.4
20260508172443 46 99 6.1 11.3 0.00 0.00 0.00 73 1006.4
20260508171943 46 86 5.2 10.4 0.00 0.00 0.00 74 1006.6
20260508171443 45 114 6.1 9.6 0.00 0.00 0.00 73 1006.5
20260508170943 45 79 5.2 9.6 0.00 0.00 0.00 76 1006.5
20260508170442 44 66 5.2 9.6 0.00 0.00 0.00 75 1006.5
20260508170002 44 110 6.1 9.6 0.00 0.00 0.00 74 1006.6
20260508165457 45 123 5.2 9.6 0.00 0.00 0.00 75 1006.6
20260508165207 44 68 2.6 7.8 0.00 0.00 0.00 76 1006.7
20260508164441 44 106 4.3 7.8 0.00 0.00 0.00 76 1006.7
20260508163940 44 96 4.3 7.8 0.00 0.00 0.00 76 1006.8
20260508163437 44 99 1.7 8.7 0.00 0.00 0.00 75 1006.7
20260508162938 44 100 4.3 8.7 0.00 0.00 0.00 74 1006.7
20260508162438 45 62 4.3 9.6 0.00 0.00 0.00 74 1006.8
20260508161938 45 97 5.2 9.6 0.00 0.00 0.00 74 1006.8
20260508161438 45 107 4.3 8.7 0.00 0.00 0.00 74 1006.7
20260508160951 45 79 5.2 8.7 0.00 0.00 0.00 72 1006.8
20260508155938 46 89 6.1 8.7 0.00 0.00 0.00 70 1006.8
20260508155437 46 34 3.5 6.1 0.00 0.00 0.00 70 1006.9
20260508155206 47 117 2.6 6.1 0.00 0.00 0.00 73 1007.0
20260508154534 46 76 3.5 7.8 0.00 0.00 0.00 72 1007.1
20260508154521 47 95 3.5 7.8 0.00 0.00 0.00 72 1007.0
20260508153610 46 93 2.6 5.2 0.00 0.00 0.00 73 1007.2
20260508153029 45 118 1.7 5.2 0.00 0.00 0.00 76 1007.2
20260508152435 45 76 3.5 6.1 0.00 0.00 0.00 74 1007.2
20260508151936 45 89 2.6 6.1 0.00 0.00 0.00 73 1007.3
20260508151436 46 73 3.5 5.2 0.00 0.00 0.00 75 1007.3
20260508150935 46 110 4.3 6.1 0.00 0.00 0.00 74 1007.3
20260508150435 46 48 3.5 6.1 0.00 0.00 0.00 73 1007.3
20260508145934 46 54 3.5 6.1 0.00 0.00 0.00 73 1007.3
20260508145700 46 56 1.7 6.1 0.00 0.00 0.00 73 1007.4
20260508144935 45 68 3.5 6.1 0.00 0.00 0.00 72 1007.3
20260508144706 45 62 4.3 5.2 0.00 0.00 0.00 71 1007.3
20260508143932 45 54 2.6 6.1 0.00 0.00 0.00 71 1007.4
20260508143432 45 51 3.5 6.1 0.00 0.00 0.00 71 1007.4
20260508142933 45 86 4.3 6.1 0.00 0.00 0.00 71 1007.3
20260508142431 45 76 5.2 6.1 0.00 0.00 0.00 70 1007.4
20260508141933 46 90 3.5 6.1 0.00 0.00 0.00 70 1007.5
20260508141431 46 76 4.3 6.1 0.00 0.00 0.00 68 1007.5
20260508140931 47 109 4.3 5.2 0.00 0.00 0.00 68 1007.5
20260508140656 47 65 1.7 6.1 0.00 0.00 0.00 67 1007.5
20260508135931 47 56 3.5 6.1 0.00 0.00 0.00 67 1007.5
20260508135430 47 45 3.5 6.1 0.00 0.00 0.00 66 1007.6
20260508134929 47 30 2.6 6.1 0.00 0.00 0.00 65 1007.6
20260508134429 47 281 1.7 6.1 0.00 0.00 0.00 65 1007.6
20260508133929 47 299 1.7 5.2 0.00 0.00 0.00 66 1007.7
20260508133700 47 307 1.7 9.6 0.00 0.00 0.00 67 1007.7
20260508132926 47 254 2.6 10.4 0.00 0.00 0.00 65 1007.7
20260508132427 47 259 1.7 11.3 0.00 0.00 0.00 65 1007.8
20260508131928 47 278 6.1 11.3 0.00 0.00 0.00 67 1007.8
20260508131425 47 283 4.3 10.4 0.00 0.00 0.00 67 1007.8
20260508130924 47 257 5.2 8.7 0.00 0.00 0.00 69 1007.8
20260508130424 46 271 1.7 4.3 0.00 0.00 0.00 69 1007.7
20260508125923 45 286 1.7 4.3 0.00 0.00 0.00 69 1007.8
20260508125422 44 250 0.9 5.2 0.00 0.00 0.00 72 1007.9
20260508124921 44 264 2.6 5.2 0.00 0.00 0.00 71 1007.9
20260508124421 43 258 2.6 5.2 0.00 0.00 0.00 72 1008.0
20260508123924 42 247 1.7 4.3 0.00 0.00 0.00 72 1008.1
20260508123422 42 238 2.6 5.2 0.00 0.00 0.00 72 1008.0
20260508122920 41 292 2.6 5.2 0.00 0.00 0.00 74 1008.1
20260508122420 40 264 2.6 4.3 0.00 0.00 0.00 74 1008.0
20260508121918 40 271 2.6 5.2 0.00 0.00 0.00 75 1008.0
20260508121417 40 251 1.7 5.2 0.00 0.00 0.00 74 1008.0
20260508120415 39 288 3.5 6.1 0.00 0.00 0.00 75 1008.1
20260508115914 39 278 1.7 3.5 0.00 0.00 0.00 75 1008.0
20260508115416 39 299 0.9 2.6 0.00 0.00 0.00 76 1008.0
20260508114915 39 285 0.9 2.6 0.00 0.00 0.00 76 1008.0
20260508114415 38 289 1.7 3.5 0.00 0.00 0.00 76 1008.0
20260508113913 38 278 1.7 5.2 0.00 0.00 0.00 76 1007.9
20260508113413 38 248 2.6 5.2 0.00 0.00 0.00 76 1007.9
20260508112911 38 279 3.5 4.3 0.00 0.00 0.00 77 1007.8
20260508112411 37 282 1.7 3.5 0.00 0.00 0.00 77 1007.7
20260508111909 37 282 1.7 5.2 0.00 0.00 0.00 77 1007.7
20260508111410 37 268 1.7 5.2 0.00 0.00 0.00 78 1007.7
20260508110909 36 274 3.5 5.2 0.00 0.00 0.00 79 1007.7
20260508110408 35 233 2.6 4.3 0.00 0.00 0.00 79 1007.6
20260508105902 35 248 2.6 4.3 0.00 0.00 0.00 79 1007.7
20260508105403 35 252 2.6 4.3 0.00 0.00 0.00 79 1007.6
20260508104902 35 264 2.6 5.2 0.00 0.00 0.00 78 1007.6
20260508104403 35 244 2.6 5.2 0.00 0.00 0.00 78 1007.6
20260508103902 35 250 3.5 4.3 0.00 0.00 0.00 78 1007.6
20260508103645 35 251 3.5 5.2 0.00 0.00 0.00 77 1007.6
20260508102902 35 268 3.5 5.2 0.00 0.00 0.00 77 1007.5
20260508102403 35 250 2.6 5.2 0.00 0.00 0.00 77 1007.5
20260508101904 35 240 3.5 4.3 0.00 0.00 0.00 76 1007.5
20260508101403 35 230 2.6 4.3 0.00 0.00 0.00 76 1007.4
20260508100903 35 247 1.7 4.3 0.00 0.00 0.00 76 1007.4
20260508100403 36 250 1.7 6.1 0.00 0.00 0.00 76 1007.4
20260508095901 36 250 3.5 6.1 0.00 0.00 0.00 76 1007.5
20260508095402 36 240 3.5 6.1 0.00 0.00 0.00 76 1007.4
20260508094902 35 267 4.3 6.1 0.00 0.00 0.00 77 1007.5
20260508094400 35 244 4.3 6.1 0.00 0.00 0.00 77 1007.4
20260508093900 35 257 3.5 6.1 0.00 0.00 0.00 77 1007.5
20260508093400 35 234 3.5 6.1 0.00 0.00 0.00 77 1007.5
20260508092900 35 240 3.5 6.1 0.00 0.00 0.00 77 1007.6
20260508092400 35 231 3.5 6.1 0.00 0.00 0.00 77 1007.5
20260508091900 35 220 3.5 6.1 0.00 0.00 0.00 77 1007.6
20260508091350 35 244 2.6 6.1 0.00 0.00 0.00 77 1007.6
20260508091118 35 237 3.5 5.2 0.00 0.00 0.00 77 1007.7
20260508090350 35 234 2.6 5.2 0.00 0.00 0.00 77 1007.7
20260508090106 35 230 2.6 6.1 0.00 0.00 0.00 78 1007.7
20260508085347 35 254 3.5 6.1 0.00 0.00 0.00 78 1007.8
20260508084847 35 226 3.5 6.1 0.00 0.00 0.00 78 1007.8
20260508084346 35 231 3.5 6.1 0.00 0.00 0.00 79 1007.8
20260508083844 35 237 3.5 6.1 0.00 0.00 0.00 79 1007.8
20260508083344 35 212 4.3 6.1 0.00 0.00 0.00 80 1007.8
20260508082846 35 217 3.5 7.8 0.00 0.00 0.00 80 1007.8
20260508082344 34 240 4.3 7.8 0.00 0.00 0.00 81 1007.9
20260508081844 34 237 3.5 6.1 0.00 0.00 0.00 82 1007.9
20260508081339 34 245 3.5 6.1 0.00 0.00 0.00 82 1007.9
20260508080839 34 231 2.6 5.2 0.00 0.00 0.00 83 1008.0
20260508080336 34 241 3.5 5.2 0.00 0.00 0.00 83 1007.9
20260508075839 34 231 3.5 5.2 0.00 0.00 0.00 84 1007.9
20260508075600 34 255 2.6 4.3 0.00 0.00 0.00 84 1008.0
20260508074835 34 231 2.6 4.3 0.00 0.00 0.00 84 1008.1
20260508074335 34 237 3.5 4.3 0.00 0.00 0.00 85 1008.1
20260508073836 34 258 2.6 5.2 0.00 0.00 0.00 85 1008.1
20260508073335 34 254 2.6 5.2 0.00 0.00 0.00 86 1008.2
20260508072835 34 251 2.6 4.3 0.00 0.00 0.00 86 1008.2
20260508072335 34 237 2.6 4.3 0.00 0.00 0.00 86 1008.2
20260508071835 34 231 2.6 4.3 0.00 0.00 0.00 86 1008.2
20260508071333 34 227 2.6 3.5 0.00 0.00 0.00 86 1008.2
20260508070332 34 217 1.7 3.5 0.00 0.00 0.00 86 1008.2
20260508065832 34 210 1.7 3.5 0.00 0.00 0.00 86 1008.2
20260508065331 34 220 1.7 2.6 0.00 0.00 0.00 85 1008.3
20260508064833 34 212 1.7 2.6 0.00 0.00 0.00 85 1008.3
20260508064600 34 220 1.7 2.6 0.00 0.00 0.00 85 1008.4
20260508063831 34 214 1.7 3.5 0.00 0.00 0.00 84 1008.5
20260508063330 35 223 1.7 3.5 0.00 0.00 0.00 84 1008.6
20260508062831 35 210 2.6 2.6 0.00 0.00 0.00 84 1008.5
20260508062331 35 217 1.7 3.5 0.00 0.00 0.00 84 1008.6
20260508061831 35 219 1.7 3.5 0.00 0.00 0.00 83 1008.7
20260508061331 35 220 2.6 3.5 0.00 0.00 0.00 83 1008.7
20260508060830 36 219 2.6 3.5 0.00 0.00 0.00 83 1008.7
20260508060331 36 220 1.7 2.6 0.00 0.00 0.00 83 1008.7
20260508055830 36 217 1.7 3.5 0.00 0.00 0.00 82 1008.8
20260508055329 36 216 1.7 3.5 0.00 0.00 0.00 82 1008.9
20260508055105 36 221 1.7 2.6 0.00 0.00 0.00 83 1009.0
20260508054330 36 214 1.7 3.5 0.00 0.00 0.00 83 1009.0
20260508054054 36 209 1.7 4.3 0.00 0.00 0.00 83 1009.0
20260508053328 36 221 2.6 4.3 0.00 0.00 0.00 83 1009.0
20260508052828 36 241 1.7 3.5 0.00 0.00 0.00 83 1009.0
20260508052328 36 226 2.6 3.5 0.00 0.00 0.00 82 1009.0
20260508051830 36 238 2.6 3.5 0.00 0.00 0.00 82 1009.0
20260508051325 36 226 1.7 3.5 0.00 0.00 0.00 81 1009.0
20260508050825 36 220 2.6 3.5 0.00 0.00 0.00 81 1009.1
20260508050326 37 244 1.7 2.6 0.00 0.00 0.00 80 1009.1
20260508050044 37 233 1.7 3.5 0.00 0.00 0.00 80 1009.2
20260508045322 37 240 1.7 3.5 0.00 0.00 0.00 79 1009.2
20260508045051 37 243 2.6 3.5 0.00 0.00 0.00 78 1009.2
20260508044319 38 237 1.7 3.5 0.00 0.00 0.00 77 1009.1
20260508044050 38 261 1.7 2.6 0.00 0.00 0.00 77 1009.1
20260508043317 38 241 0.9 2.6 0.00 0.00 0.00 76 1009.0
20260508042817 39 258 1.7 2.6 0.00 0.00 0.00 76 1009.1
20260508042314 39 275 0.0 5.2 0.00 0.00 0.00 75 1009.0
20260508041816 40 199 1.7 5.2 0.00 0.00 0.00 74 1009.0
20260508041312 40 175 2.6 5.2 0.00 0.00 0.00 74 1009.0
20260508040810 40 186 3.5 5.2 0.00 0.00 0.00 73 1009.0
20260508040311 40 200 2.6 5.2 0.00 0.00 0.00 72 1009.0
20260508035808 40 199 1.7 4.3 0.00 0.00 0.00 72 1009.0
20260508035535 40 193 1.7 4.3 0.00 0.00 0.00 72 1009.1
20260508034807 40 214 1.7 4.3 0.00 0.00 0.00 72 1009.0
20260508034309 40 216 2.6 4.3 0.00 0.00 0.00 73 1008.9
20260508033805 40 228 0.9 4.3 0.00 0.00 0.00 73 1008.9
20260508033306 40 145 0.9 4.3 0.00 0.00 0.00 74 1009.0
20260508032806 40 171 0.9 5.2 0.00 0.00 0.00 74 1008.9
20260508032306 40 186 1.7 5.2 0.00 0.00 0.00 76 1008.9
20260508031804 40 199 2.6 3.5 0.00 0.00 0.00 78 1008.9
20260508031552 40 199 1.7 3.5 0.00 0.00 0.00 78 1009.0
20260508030842 40 192 1.7 3.5 0.00 0.00 0.00 78 1009.1
20260508030334 40 175 1.7 3.5 0.00 0.00 0.00 77 1009.2
20260508025800 40 193 1.7 3.5 0.00 0.00 0.00 77 1009.4
20260508025525 40 188 1.7 2.6 0.00 0.00 0.00 77 1009.4
20260508024759 40 197 0.9 1.7 0.00 0.00 0.00 77 1009.4